| time (UTC) | temp F | wind direction | speed MPH | gust MPH | rain 1hr in | rain 24hr in | rain mn in | humidity % | barometer mb |
| 20260502235008 | 51 | 338 | 3.0 | 9.0 | 0.00 | 0.00 | 0.00 | 73 | 1017.1 |
| 20260502234536 | 51 | 331 | 3.0 | 8.0 | 0.00 | 0.00 | 0.00 | 71 | 1016.9 |
| 20260502234009 | 52 | 5 | 4.0 | 8.0 | 0.00 | 0.00 | 0.00 | 71 | 1016.9 |
| 20260502233509 | 52 | 347 | 3.0 | 15.0 | 0.00 | 0.00 | 0.00 | 70 | 1016.8 |
| 20260502233021 | 52 | 28 | 6.0 | 15.0 | 0.00 | 0.00 | 0.00 | 70 | 1016.7 |
| 20260502232507 | 52 | 342 | 3.0 | 10.0 | 0.00 | 0.00 | 0.00 | 71 | 1016.7 |
| 20260502232007 | 53 | 360 | 4.0 | 11.0 | 0.00 | 0.00 | 0.00 | 70 | 1016.7 |
| 20260502231530 | 53 | 355 | 4.0 | 11.0 | 0.00 | 0.00 | 0.00 | 69 | 1016.6 |
| 20260502231011 | 54 | 333 | 4.0 | 11.0 | 0.00 | 0.00 | 0.00 | 68 | 1016.7 |
| 20260502230507 | 55 | 317 | 6.0 | 10.0 | 0.00 | 0.00 | 0.00 | 64 | 1016.6 |
| 20260502230024 | 55 | 306 | 2.0 | 6.0 | 0.00 | 0.00 | 0.00 | 65 | 1016.5 |
| 20260502225506 | 55 | 348 | 2.0 | 9.0 | 0.00 | 0.00 | 0.00 | 66 | 1016.4 |
| 20260502225005 | 55 | 296 | 3.0 | 11.0 | 0.00 | 0.00 | 0.00 | 59 | 1016.4 |
| 20260502224516 | 56 | 332 | 5.0 | 11.0 | 0.00 | 0.00 | 0.00 | 58 | 1016.4 |
| 20260502224012 | 56 | 334 | 2.0 | 6.0 | 0.00 | 0.00 | 0.00 | 59 | 1016.4 |
| 20260502223504 | 57 | 5 | 2.0 | 8.0 | 0.00 | 0.00 | 0.00 | 58 | 1016.3 |
| 20260502223035 | 58 | 339 | 4.0 | 8.0 | 0.00 | 0.00 | 0.00 | 56 | 1016.3 |
| 20260502222507 | 58 | 355 | 2.0 | 12.0 | 0.00 | 0.00 | 0.00 | 52 | 1016.1 |
| 20260502222007 | 59 | 28 | 7.0 | 12.0 | 0.00 | 0.00 | 0.00 | 50 | 1015.9 |
| 20260502221525 | 59 | 31 | 4.0 | 11.0 | 0.00 | 0.00 | 0.00 | 55 | 1015.8 |
| 20260502221013 | 59 | 23 | 5.0 | 11.0 | 0.00 | 0.00 | 0.00 | 55 | 1015.9 |
| 20260502220503 | 60 | 355 | 6.0 | 10.0 | 0.00 | 0.00 | 0.00 | 50 | 1015.8 |
| 20260502220008 | 61 | 355 | 4.0 | 11.0 | 0.00 | 0.00 | 0.00 | 55 | 1015.6 |
| 20260502215504 | 59 | 338 | 4.0 | 11.0 | 0.00 | 0.00 | 0.00 | 55 | 1015.6 |
| 20260502215002 | 60 | 15 | 5.0 | 10.0 | 0.00 | 0.00 | 0.00 | 51 | 1015.8 |
| 20260502214512 | 60 | 324 | 4.0 | 14.0 | 0.00 | 0.00 | 0.00 | 48 | 1015.7 |
| 20260502214011 | 60 | 338 | 6.0 | 14.0 | 0.00 | 0.00 | 0.00 | 50 | 1015.6 |
| 20260502213507 | 61 | 28 | 6.0 | 15.0 | 0.00 | 0.00 | 0.00 | 54 | 1015.6 |
| 20260502213022 | 60 | 27 | 11.0 | 15.0 | 0.00 | 0.00 | 0.00 | 50 | 1015.7 |
| 20260502212506 | 60 | 343 | 7.0 | 12.0 | 0.00 | 0.00 | 0.00 | 51 | 1015.6 |
| 20260502212006 | 61 | 337 | 6.0 | 12.0 | 0.00 | 0.00 | 0.00 | 54 | 1015.8 |
| 20260502211530 | 61 | 325 | 7.0 | 14.0 | 0.00 | 0.00 | 0.00 | 48 | 1015.9 |
| 20260502211006 | 60 | 316 | 6.0 | 14.0 | 0.00 | 0.00 | 0.00 | 51 | 1016.0 |
| 20260502210513 | 58 | 332 | 5.0 | 15.0 | 0.00 | 0.00 | 0.00 | 52 | 1016.0 |
| 20260502210024 | 59 | 335 | 6.0 | 15.0 | 0.00 | 0.00 | 0.00 | 49 | 1016.0 |
| 20260502205513 | 61 | 329 | 8.0 | 14.0 | 0.00 | 0.00 | 0.00 | 50 | 1015.9 |
| 20260502205009 | 61 | 335 | 5.0 | 13.0 | 0.00 | 0.00 | 0.00 | 48 | 1015.9 |
| 20260502204511 | 61 | 298 | 3.0 | 8.0 | 0.00 | 0.00 | 0.00 | 48 | 1016.0 |
| 20260502204005 | 60 | 326 | 2.0 | 8.0 | 0.00 | 0.00 | 0.00 | 54 | 1016.0 |
| 20260502203506 | 61 | 317 | 1.0 | 8.0 | 0.00 | 0.00 | 0.00 | 51 | 1016.1 |
| 20260502203018 | 63 | 295 | 2.0 | 8.0 | 0.00 | 0.00 | 0.00 | 45 | 1016.1 |
| 20260502202505 | 63 | 272 | 3.0 | 10.0 | 0.00 | 0.00 | 0.00 | 47 | 1016.1 |
| 20260502202007 | 63 | 279 | 4.0 | 12.0 | 0.00 | 0.00 | 0.00 | 51 | 1016.1 |
| 20260502201525 | 61 | 350 | 7.0 | 12.0 | 0.00 | 0.00 | 0.00 | 44 | 1016.2 |
| 20260502201005 | 62 | 324 | 4.0 | 9.0 | 0.00 | 0.00 | 0.00 | 47 | 1016.3 |
| 20260502200506 | 62 | 307 | 1.0 | 8.0 | 0.00 | 0.00 | 0.00 | 54 | 1016.3 |
| 20260502200022 | 61 | 24 | 3.0 | 6.0 | 0.00 | 0.00 | 0.00 | 50 | 1016.4 |
| 20260502195508 | 58 | 267 | 1.0 | 9.0 | 0.00 | 0.00 | 0.00 | 56 | 1016.5 |
| 20260502195002 | 58 | 306 | 4.0 | 11.0 | 0.00 | 0.00 | 0.00 | 49 | 1016.5 |
| 20260502194512 | 58 | 310 | 4.0 | 11.0 | 0.00 | 0.00 | 0.00 | 50 | 1016.4 |
| 20260502194002 | 59 | 336 | 4.0 | 11.0 | 0.00 | 0.00 | 0.00 | 53 | 1016.4 |
| 20260502193506 | 59 | 331 | 4.0 | 12.0 | 0.00 | 0.00 | 0.00 | 56 | 1016.5 |
| 20260502193012 | 60 | 318 | 4.0 | 12.0 | 0.00 | 0.00 | 0.00 | 46 | 1016.6 |
| 20260502192510 | 62 | 22 | 5.0 | 12.0 | 0.00 | 0.00 | 0.00 | 47 | 1016.5 |
| 20260502192007 | 62 | 25 | 6.0 | 11.0 | 0.00 | 0.00 | 0.00 | 48 | 1016.5 |
| 20260502191519 | 62 | 350 | 3.0 | 11.0 | 0.00 | 0.00 | 0.00 | 50 | 1016.6 |
| 20260502191002 | 61 | 342 | 4.0 | 10.0 | 0.00 | 0.00 | 0.00 | 52 | 1016.7 |
| 20260502190502 | 58 | 324 | 4.0 | 10.0 | 0.00 | 0.00 | 0.00 | 49 | 1016.7 |
| 20260502190004 | 58 | 355 | 3.0 | 9.0 | 0.00 | 0.00 | 0.00 | 51 | 1016.7 |
| 20260502185502 | 59 | 315 | 4.0 | 9.0 | 0.00 | 0.00 | 0.00 | 52 | 1016.7 |
| 20260502185002 | 60 | 335 | 2.0 | 10.0 | 0.00 | 0.00 | 0.00 | 46 | 1016.6 |
| 20260502184506 | 60 | 271 | 4.0 | 10.0 | 0.00 | 0.00 | 0.00 | 46 | 1016.6 |
| 20260502184002 | 60 | 333 | 4.0 | 10.0 | 0.00 | 0.00 | 0.00 | 49 | 1016.6 |
| 20260502183503 | 60 | 17 | 5.0 | 10.0 | 0.00 | 0.00 | 0.00 | 43 | 1016.6 |
| 20260502183010 | 61 | 22 | 3.0 | 9.0 | 0.00 | 0.00 | 0.00 | 47 | 1016.6 |
| 20260502182503 | 62 | 297 | 3.0 | 9.0 | 0.00 | 0.00 | 0.00 | 42 | 1016.6 |
| 20260502182005 | 62 | 266 | 3.0 | 8.0 | 0.00 | 0.00 | 0.00 | 47 | 1016.6 |
| 20260502181515 | 61 | 321 | 4.0 | 11.0 | 0.00 | 0.00 | 0.00 | 52 | 1016.6 |
| 20260502181006 | 61 | 297 | 6.0 | 11.0 | 0.00 | 0.00 | 0.00 | 48 | 1016.6 |
| 20260502180507 | 62 | 284 | 3.0 | 11.0 | 0.00 | 0.00 | 0.00 | 48 | 1016.7 |
| 20260502170509 | 61 | 25 | 4.0 | 12.0 | 0.00 | 0.00 | 0.00 | 54 | 1017.2 |
| 20260502164011 | 61 | 313 | 1.0 | 10.0 | 0.00 | 0.00 | 0.00 | 46 | 1017.3 |
| 20260502163502 | 61 | 92 | 3.0 | 12.0 | 0.00 | 0.00 | 0.00 | 43 | 1017.3 |
| 20260502163016 | 61 | 334 | 7.0 | 12.0 | 0.00 | 0.00 | 0.00 | 41 | 1017.4 |
| 20260502162504 | 60 | 355 | 4.0 | 12.0 | 0.00 | 0.00 | 0.00 | 47 | 1017.4 |
| 20260502162006 | 60 | 5 | 3.0 | 11.0 | 0.00 | 0.00 | 0.00 | 47 | 1017.5 |
| 20260502161520 | 60 | 36 | 4.0 | 11.0 | 0.00 | 0.00 | 0.00 | 46 | 1017.6 |
| 20260502161003 | 60 | 5 | 4.0 | 10.0 | 0.00 | 0.00 | 0.00 | 52 | 1017.6 |
| 20260502160503 | 59 | 5 | 4.0 | 7.0 | 0.00 | 0.00 | 0.00 | 51 | 1017.5 |
| 20260502152010 | 59 | 25 | 5.0 | 10.0 | 0.00 | 0.00 | 0.00 | 54 | 1017.5 |
| 20260502151506 | 58 | 19 | 3.0 | 10.0 | 0.00 | 0.00 | 0.00 | 52 | 1017.4 |
| 20260502151002 | 57 | 336 | 4.0 | 11.0 | 0.00 | 0.00 | 0.00 | 52 | 1017.4 |
| 20260502150502 | 57 | 311 | 7.0 | 11.0 | 0.00 | 0.00 | 0.00 | 51 | 1017.4 |
| 20260502130504 | 49 | 232 | 0.0 | 2.0 | 0.00 | 0.00 | 0.00 | 87 | 1017.3 |
| 20260502123507 | 45 | 323 | 0.0 | 1.0 | 0.00 | 0.00 | 0.00 | 93 | 1017.2 |
| 20260502123017 | 44 | 323 | 0.0 | 1.0 | 0.00 | 0.00 | 0.00 | 92 | 1017.1 |
| 20260502122506 | 43 | 323 | 0.0 | 0.0 | 0.00 | 0.00 | 0.00 | 92 | 1017.1 |
| 20260502122003 | 43 | 323 | 0.0 | 1.0 | 0.00 | 0.00 | 0.00 | 92 | 1017.1 |
| 20260502121516 | 42 | 323 | 0.0 | 1.0 | 0.00 | 0.00 | 0.00 | 92 | 1017.0 |
| 20260502121003 | 42 | 323 | 0.0 | 2.0 | 0.00 | 0.00 | 0.00 | 92 | 1017.1 |
| 20260502120505 | 42 | 323 | 0.0 | 2.0 | 0.00 | 0.00 | 0.00 | 92 | 1017.1 |
| 20260502115503 | 41 | 323 | 0.0 | 2.0 | 0.00 | 0.00 | 0.00 | 91 | 1017.0 |
| 20260502115003 | 40 | 323 | 0.0 | 1.0 | 0.00 | 0.00 | 0.00 | 91 | 1017.0 |
| 20260502114506 | 40 | 323 | 0.0 | 1.0 | 0.00 | 0.00 | 0.00 | 90 | 1016.8 |
| 20260502114006 | 39 | 323 | 0.0 | 0.0 | 0.00 | 0.00 | 0.00 | 90 | 1016.8 |
| 20260502113506 | 39 | 323 | 0.0 | 0.0 | 0.00 | 0.00 | 0.00 | 89 | 1016.6 |
| 20260502113014 | 39 | 323 | 0.0 | 0.0 | 0.00 | 0.00 | 0.00 | 89 | 1016.5 |
| 20260502112506 | 39 | 323 | 0.0 | 0.0 | 0.00 | 0.00 | 0.00 | 89 | 1016.4 |
| 20260502112004 | 39 | 323 | 0.0 | 0.0 | 0.00 | 0.00 | 0.00 | 89 | 1016.5 |
| 20260502111518 | 39 | 323 | 0.0 | 0.0 | 0.00 | 0.00 | 0.00 | 89 | 1016.4 |
| 20260502111005 | 39 | 323 | 0.0 | 1.0 | 0.00 | 0.00 | 0.00 | 89 | 1016.6 |
| 20260502110505 | 40 | 323 | 0.0 | 1.0 | 0.00 | 0.00 | 0.00 | 89 | 1016.6 |
| 20260502110002 | 40 | 323 | 0.0 | 1.0 | 0.00 | 0.00 | 0.00 | 89 | 1016.6 |
| 20260502105502 | 40 | 323 | 0.0 | 1.0 | 0.00 | 0.00 | 0.00 | 89 | 1016.7 |
| 20260502105003 | 40 | 323 | 0.0 | 0.0 | 0.00 | 0.00 | 0.00 | 89 | 1016.7 |
| 20260502104513 | 40 | 323 | 0.0 | 0.0 | 0.00 | 0.00 | 0.00 | 89 | 1016.6 |
| 20260502104002 | 40 | 323 | 0.0 | 0.0 | 0.00 | 0.00 | 0.00 | 88 | 1016.5 |
| 20260502103502 | 40 | 323 | 0.0 | 0.0 | 0.00 | 0.00 | 0.00 | 88 | 1016.5 |
| 20260502103010 | 40 | 323 | 0.0 | 0.0 | 0.00 | 0.00 | 0.00 | 88 | 1016.5 |
| 20260502102506 | 40 | 323 | 0.0 | 0.0 | 0.00 | 0.00 | 0.00 | 88 | 1016.4 |
| 20260502102006 | 40 | 323 | 0.0 | 0.0 | 0.00 | 0.00 | 0.00 | 88 | 1016.3 |
| 20260502101520 | 40 | 323 | 0.0 | 0.0 | 0.00 | 0.00 | 0.00 | 88 | 1016.3 |
| 20260502101005 | 40 | 323 | 0.0 | 0.0 | 0.00 | 0.00 | 0.00 | 88 | 1016.3 |
| 20260502100505 | 40 | 323 | 0.0 | 0.0 | 0.00 | 0.00 | 0.00 | 88 | 1016.2 |
| 20260502091514 | 41 | 323 | 0.0 | 0.0 | 0.00 | 0.00 | 0.00 | 88 | 1015.8 |
| 20260502091006 | 41 | 323 | 0.0 | 0.0 | 0.00 | 0.00 | 0.00 | 87 | 1015.9 |
| 20260502090505 | 41 | 323 | 0.0 | 0.0 | 0.00 | 0.00 | 0.00 | 87 | 1015.9 |
| 20260502071525 | 41 | 323 | 0.0 | 2.0 | 0.00 | 0.00 | 0.00 | 86 | 1016.8 |
| 20260502071006 | 41 | 323 | 0.0 | 3.0 | 0.00 | 0.00 | 0.00 | 85 | 1016.7 |
| 20260502070510 | 41 | 323 | 2.0 | 3.0 | 0.00 | 0.00 | 0.00 | 85 | 1016.6 |
| 20260502070018 | 41 | 323 | 2.0 | 3.0 | 0.00 | 0.00 | 0.00 | 84 | 1016.6 |
| 20260502065504 | 41 | 323 | 0.0 | 0.0 | 0.00 | 0.00 | 0.00 | 84 | 1016.7 |
| 20260502065003 | 41 | 323 | 0.0 | 0.0 | 0.00 | 0.00 | 0.00 | 84 | 1016.9 |
| 20260502064517 | 41 | 323 | 0.0 | 0.0 | 0.00 | 0.00 | 0.00 | 83 | 1016.9 |
| 20260502064007 | 42 | 323 | 0.0 | 0.0 | 0.00 | 0.00 | 0.00 | 83 | 1016.9 |
| 20260502063507 | 42 | 323 | 0.0 | 0.0 | 0.00 | 0.00 | 0.00 | 83 | 1016.9 |
| 20260502063020 | 42 | 323 | 0.0 | 0.0 | 0.00 | 0.00 | 0.00 | 83 | 1016.9 |
| 20260502062513 | 42 | 323 | 0.0 | 0.0 | 0.00 | 0.00 | 0.00 | 82 | 1017.0 |
| 20260502062008 | 42 | 323 | 0.0 | 0.0 | 0.00 | 0.00 | 0.00 | 82 | 1017.0 |
| 20260502061524 | 43 | 323 | 0.0 | 0.0 | 0.00 | 0.00 | 0.00 | 82 | 1017.1 |
| 20260502061006 | 43 | 323 | 0.0 | 1.0 | 0.00 | 0.00 | 0.00 | 82 | 1017.2 |
| 20260502060502 | 43 | 323 | 0.0 | 2.0 | 0.00 | 0.00 | 0.00 | 81 | 1017.2 |
| 20260502060006 | 43 | 323 | 0.0 | 2.0 | 0.00 | 0.00 | 0.00 | 81 | 1017.2 |
| 20260502055502 | 43 | 323 | 1.0 | 2.0 | 0.00 | 0.00 | 0.00 | 81 | 1017.2 |
| 20260502055003 | 43 | 323 | 0.0 | 1.0 | 0.00 | 0.00 | 0.00 | 81 | 1017.1 |
| 20260502054513 | 43 | 323 | 0.0 | 1.0 | 0.00 | 0.00 | 0.00 | 80 | 1017.0 |
| 20260502054003 | 43 | 323 | 0.0 | 2.0 | 0.00 | 0.00 | 0.00 | 80 | 1017.1 |
| 20260502053506 | 43 | 323 | 0.0 | 2.0 | 0.00 | 0.00 | 0.00 | 79 | 1017.0 |
| 20260502053018 | 44 | 323 | 1.0 | 2.0 | 0.00 | 0.00 | 0.00 | 79 | 1016.8 |
| 20260502052507 | 44 | 323 | 0.0 | 1.0 | 0.00 | 0.00 | 0.00 | 79 | 1016.8 |
| 20260502052008 | 44 | 323 | 0.0 | 2.0 | 0.00 | 0.00 | 0.00 | 79 | 1016.7 |
| 20260502051528 | 44 | 323 | 1.0 | 2.0 | 0.00 | 0.00 | 0.00 | 79 | 1016.6 |
| 20260502051006 | 44 | 323 | 1.0 | 2.0 | 0.00 | 0.00 | 0.00 | 79 | 1016.6 |
| 20260502050507 | 44 | 323 | 1.0 | 2.0 | 0.00 | 0.00 | 0.00 | 78 | 1016.7 |
| 20260502050030 | 44 | 323 | 0.0 | 2.0 | 0.00 | 0.00 | 0.00 | 78 | 1016.7 |
| 20260502045506 | 44 | 323 | 0.0 | 2.0 | 0.00 | 0.00 | 0.00 | 78 | 1016.7 |
| 20260502045009 | 44 | 323 | 0.0 | 2.0 | 0.00 | 0.00 | 0.00 | 78 | 1016.7 |
| 20260502044511 | 44 | 323 | 0.0 | 2.0 | 0.00 | 0.00 | 0.00 | 78 | 1016.7 |
| 20260502044005 | 44 | 323 | 0.0 | 1.0 | 0.00 | 0.00 | 0.00 | 76 | 1016.8 |
| 20260502043503 | 44 | 323 | 0.0 | 1.0 | 0.00 | 0.00 | 0.00 | 75 | 1016.8 |
| 20260502043017 | 44 | 323 | 0.0 | 0.0 | 0.00 | 0.00 | 0.00 | 73 | 1016.8 |
| 20260502042503 | 45 | 323 | 0.0 | 0.0 | 0.00 | 0.00 | 0.00 | 73 | 1016.8 |
| 20260502042008 | 45 | 323 | 0.0 | 0.0 | 0.00 | 0.00 | 0.00 | 72 | 1016.9 |
| 20260502041522 | 45 | 323 | 0.0 | 0.0 | 0.00 | 0.00 | 0.00 | 73 | 1017.0 |
| 20260502041011 | 45 | 323 | 0.0 | 1.0 | 0.00 | 0.00 | 0.00 | 72 | 1017.0 |
| 20260502040507 | 46 | 323 | 0.0 | 1.0 | 0.00 | 0.00 | 0.00 | 72 | 1017.0 |
| 20260502040024 | 46 | 323 | 0.0 | 1.0 | 0.00 | 0.00 | 0.00 | 72 | 1017.1 |
| 20260502035508 | 46 | 323 | 0.0 | 3.0 | 0.00 | 0.00 | 0.00 | 72 | 1017.0 |
| 20260502035010 | 46 | 323 | 1.0 | 3.0 | 0.00 | 0.00 | 0.00 | 73 | 1017.1 |
| 20260502034528 | 46 | 323 | 1.0 | 3.0 | 0.00 | 0.00 | 0.00 | 72 | 1017.2 |
| 20260502034007 | 47 | 322 | 0.0 | 3.0 | 0.00 | 0.00 | 0.00 | 71 | 1017.1 |
| 20260502033508 | 47 | 322 | 0.0 | 1.0 | 0.00 | 0.00 | 0.00 | 72 | 1017.1 |
| 20260502033028 | 47 | 322 | 0.0 | 2.0 | 0.00 | 0.00 | 0.00 | 72 | 1017.0 |
| 20260502032503 | 47 | 322 | 0.0 | 2.0 | 0.00 | 0.00 | 0.00 | 72 | 1017.1 |
| 20260502032005 | 47 | 322 | 1.0 | 2.0 | 0.00 | 0.00 | 0.00 | 70 | 1017.2 |
| 20260502031514 | 47 | 322 | 1.0 | 2.0 | 0.00 | 0.00 | 0.00 | 67 | 1017.2 |
| 20260502031004 | 48 | 322 | 0.0 | 0.0 | 0.00 | 0.00 | 0.00 | 66 | 1017.2 |
| 20260502030507 | 48 | 322 | 0.0 | 0.0 | 0.00 | 0.00 | 0.00 | 66 | 1017.2 |
| 20260502030023 | 48 | 322 | 0.0 | 0.0 | 0.00 | 0.00 | 0.00 | 66 | 1017.3 |
| 20260502025513 | 48 | 322 | 0.0 | 1.0 | 0.00 | 0.00 | 0.00 | 66 | 1017.2 |
| 20260502025007 | 48 | 322 | 0.0 | 2.0 | 0.00 | 0.00 | 0.00 | 67 | 1017.2 |
| 20260502024528 | 48 | 322 | 0.0 | 2.0 | 0.00 | 0.00 | 0.00 | 66 | 1017.1 |
| 20260502024006 | 49 | 322 | 0.0 | 2.0 | 0.00 | 0.00 | 0.00 | 68 | 1017.1 |
| 20260502023510 | 49 | 322 | 0.0 | 2.0 | 0.00 | 0.00 | 0.00 | 65 | 1017.0 |
| 20260502023025 | 49 | 322 | 0.0 | 2.0 | 0.00 | 0.00 | 0.00 | 63 | 1017.0 |
| 20260502022506 | 49 | 322 | 0.0 | 3.0 | 0.00 | 0.00 | 0.00 | 64 | 1017.0 |
| 20260502022015 | 50 | 322 | 1.0 | 3.0 | 0.00 | 0.00 | 0.00 | 62 | 1016.9 |
| 20260502021530 | 50 | 322 | 1.0 | 3.0 | 0.00 | 0.00 | 0.00 | 64 | 1016.8 |
| 20260502021010 | 50 | 322 | 2.0 | 3.0 | 0.00 | 0.00 | 0.00 | 61 | 1016.7 |
| 20260502020506 | 50 | 321 | 0.0 | 2.0 | 0.00 | 0.00 | 0.00 | 61 | 1016.8 |
| 20260502020018 | 51 | 321 | 1.0 | 2.0 | 0.00 | 0.00 | 0.00 | 61 | 1016.8 |
| 20260502015510 | 51 | 321 | 0.0 | 2.0 | 0.00 | 0.00 | 0.00 | 58 | 1016.8 |
| 20260502015009 | 51 | 321 | 0.0 | 2.0 | 0.00 | 0.00 | 0.00 | 55 | 1016.8 |
| 20260502014525 | 52 | 321 | 0.0 | 2.0 | 0.00 | 0.00 | 0.00 | 55 | 1016.7 |
| 20260502014014 | 52 | 321 | 1.0 | 3.0 | 0.00 | 0.00 | 0.00 | 55 | 1016.7 |
| 20260502013505 | 52 | 321 | 1.0 | 3.0 | 0.00 | 0.00 | 0.00 | 54 | 1016.7 |
| 20260502013025 | 52 | 321 | 1.0 | 3.0 | 0.00 | 0.00 | 0.00 | 54 | 1016.6 |
| 20260502012508 | 52 | 321 | 1.0 | 4.0 | 0.00 | 0.00 | 0.00 | 55 | 1016.5 |
| 20260502012013 | 52 | 325 | 1.0 | 4.0 | 0.00 | 0.00 | 0.00 | 55 | 1016.4 |
| 20260502011529 | 53 | 324 | 1.0 | 3.0 | 0.00 | 0.00 | 0.00 | 55 | 1016.1 |
| 20260502011008 | 53 | 324 | 2.0 | 4.0 | 0.00 | 0.00 | 0.00 | 55 | 1016.0 |
| 20260502010513 | 53 | 322 | 1.0 | 4.0 | 0.00 | 0.00 | 0.00 | 56 | 1015.9 |
| 20260502010029 | 53 | 294 | 2.0 | 6.0 | 0.00 | 0.00 | 0.00 | 55 | 1015.8 |
| 20260502005510 | 54 | 287 | 2.0 | 6.0 | 0.00 | 0.00 | 0.00 | 52 | 1015.7 |
| 20260502005012 | 54 | 300 | 1.0 | 3.0 | 0.00 | 0.00 | 0.00 | 52 | 1015.6 |
| 20260502004520 | 54 | 332 | 0.0 | 4.0 | 0.00 | 0.00 | 0.00 | 53 | 1015.5 |
| 20260502004015 | 55 | 334 | 0.0 | 4.0 | 0.00 | 0.00 | 0.00 | 53 | 1015.5 |
| 20260502003508 | 55 | 334 | 1.0 | 4.0 | 0.00 | 0.00 | 0.00 | 50 | 1015.2 |
| 20260502003026 | 55 | 300 | 1.0 | 4.0 | 0.00 | 0.00 | 0.00 | 51 | 1015.2 |
| 20260502002508 | 55 | 343 | 1.0 | 4.0 | 0.00 | 0.00 | 0.00 | 52 | 1015.0 |
| 20260502002011 | 56 | 322 | 1.0 | 4.0 | 0.00 | 0.00 | 0.00 | 53 | 1014.7 |
| 20260502001527 | 56 | 341 | 1.0 | 5.0 | 0.00 | 0.00 | 0.00 | 53 | 1014.6 |
| 20260502001014 | 56 | 340 | 2.0 | 5.0 | 0.00 | 0.00 | 0.00 | 53 | 1014.6 |
| 20260502000509 | 56 | 329 | 2.0 | 6.0 | 0.00 | 0.00 | 0.00 | 50 | 1014.4 |
| 20260502000029 | 57 | 342 | 2.0 | 6.0 | 0.00 | 0.00 | 0.00 | 54 | 1014.4 |
| 20260501235507 | 57 | 320 | 2.0 | 9.0 | 0.00 | 0.00 | 0.00 | 54 | 1014.4 |